Gulf Shores, AL (36542)

9:49 AM CST on February 14, 2016 (GMT -0600)
West Beach | | Change Station
CLOSE
Current Station
Personal Weather Station
Location: Gulf Shores, AL
Elevation: 39 ft
Nearby Weather Stations

Elev 39 ft 30.25 °N, 87.72 °W | Updated 4 minutes ago

Clear
Clear
57.2 °F
Feels Like 57.2 °F
N
14.0
Wind Variable Wind from ESE
Gusts 22.0 mph

Today
High -- | Low -- °F
--% Chance of Precip.
Yesterday
High -- | Low -- °F
Precip. -- in
Pressure 30.28 in
Visibility 10.0 miles
Clouds Clear
Dew Point 46 °F
Humidity 65%
Rainfall 0.00 in
Snow Depth Not available.
6:32 AM 5:38 PM
Waxing Crescent, 43% visible
METAR KJKA 141535Z AUTO 11017G24KT 10SM CLR 14/05 A3028 RMK AO2 T01400051
Pressure 30.28 in
Visibility 10.0 miles
Clouds Clear
Dew Point 46 °F
Humidity 65%
Rainfall 0.00 in
Snow Depth Not available.
6:32 AM 5:38 PM
Waxing Crescent, 43% visible
METAR KJKA 141535Z AUTO 11017G24KT 10SM CLR 14/05 A3028 RMK AO2 T01400051

10-Day Weather Forecast

Almanac

Astronomy

Feb. 14, 2016 Rise Set
Actual Time
Civil Twilight
Nautical Twilight
Astronomical Twilight
Moon
Length of Visible Light
Length of Day
Tomorrow will be .
, % of the Moon is Illuminated

Today's Extremes

State Highs State Lows

Community

WunderPhotos

Upload Photos

1,892,802 photos uploaded!

WunderBlog® & News

Nearby

Air Quality

  Air Quality AQ Index Pollutant
Not available.

Snow Depth

Station Depth Elevation

Earthquake Activity

City Distance Mag. Time & Date
Minimum magnitude displayed is 2.5.

Coastal Water Temperatures

Place Temperature

Stations

Nearby Weather Stations

Station Location Temp. Windchill Dew Point Humidity Wind Precip. Elev Updated Type
                   

Watches & Warnings

There are currently no watches in effect.